Stündliche Wetter Barnowo

Heute, 25 Oktober, Sonntag

Zeit Temperatur Niederschläge Wind Luftdruck Luftfeuchtigkeit
00:00 +11°C° 0 mm 3 m/S 749 mmHg 89%
01:00 +11°C° 0 mm 3 m/S 749 mmHg 91%
02:00 +11°C° 0 mm 3 m/S 749 mmHg 91%
03:00 +11°C° 0 mm 3 m/S 749 mmHg 90%
04:00 +11°C° 0 mm 3 m/S 748 mmHg 90%
05:00 +10°C° 0 mm 3 m/S 748 mmHg 91%
06:00 +10°C° 0 mm 4 m/S 748 mmHg 91%
07:00 +8°C° 0 mm 4 m/S 749 mmHg 92%
08:00 +10°C° 0 mm 4 m/S 748 mmHg 86%
09:00 +12°C° 0 mm 5 m/S 748 mmHg 81%
10:00 +13°C° 0 mm 5 m/S 748 mmHg 75%
11:00 +14°C° 0 mm 5 m/S 748 mmHg 72%
12:00 +14°C° 0 mm 5 m/S 748 mmHg 69%
13:00 +15°C° 0 mm 5 m/S 748 mmHg 66%
14:00 +15°C° 0 mm 5 m/S 747 mmHg 69%
15:00 +14°C° 0 mm 5 m/S 747 mmHg 71%
16:00 +14°C° 0 mm 4 m/S 746 mmHg 73%
17:00 +13°C° 0 mm 4 m/S 747 mmHg 76%
18:00 +13°C° 0 mm 5 m/S 747 mmHg 78%
19:00 +12°C° 0 mm 5 m/S 747 mmHg 81%
20:00 +12°C° 0 mm 5 m/S 746 mmHg 83%
21:00 +12°C° 0 mm 5 m/S 746 mmHg 84%
22:00 +12°C° 0 mm 5 m/S 746 mmHg 86%
23:00 +12°C° 0 mm 5 m/S 746 mmHg 86%

Morgen, 26 Oktober, Montag

Zeit Temperatur Niederschläge Wind Luftdruck Luftfeuchtigkeit
00:00 +10°C° 0 mm 5 m/S 746 mmHg 86%
01:00 +10°C° 0 mm 5 m/S 745 mmHg 86%
02:00 +11°C° 0 mm 4 m/S 745 mmHg 88%
03:00 +10°C° 0 mm 4 m/S 745 mmHg 89%
04:00 +10°C° 0 mm 4 m/S 745 mmHg 91%
05:00 +10°C° 0 mm 4 m/S 745 mmHg 92%
06:00 +9°C° 0 mm 3 m/S 745 mmHg 93%
07:00 +9°C° 0 mm 3 m/S 744 mmHg 94%
08:00 +10°C° 0 mm 3 m/S 744 mmHg 90%
09:00 +11°C° 0 mm 3 m/S 744 mmHg 87%
10:00 +12°C° 0 mm 3 m/S 744 mmHg 83%
11:00 +12°C° 0 mm 3 m/S 744 mmHg 80%
12:00 +13°C° 0 mm 3 m/S 744 mmHg 77%
13:00 +14°C° 0 mm 3 m/S 744 mmHg 74%
14:00 +14°C° 0 mm 3 m/S 744 mmHg 77%
15:00 +13°C° 0 mm 3 m/S 743 mmHg 79%
16:00 +13°C° 0 mm 3 m/S 743 mmHg 82%
17:00 +14°C° 0.1 mm 2 m/S 743 mmHg 84%
18:00 +13°C° 0.1 mm 2 m/S 744 mmHg 85%
19:00 +13°C° 0.1 mm 2 m/S 744 mmHg 87%
20:00 +13°C° 0.3 mm 2 m/S 744 mmHg 89%
21:00 +13°C° 0.3 mm 2 m/S 744 mmHg 90%
22:00 +12°C° 0.3 mm 2 m/S 744 mmHg 92%
23:00 +12°C° 0 mm 2 m/S 744 mmHg 92%

übermorgen, 27 Oktober, Dienstag

Zeit Temperatur Niederschläge Wind Luftdruck Luftfeuchtigkeit
00:00 +12°C° 0 mm 2 m/S 744 mmHg 93%
01:00 +12°C° 0 mm 1 m/S 745 mmHg 93%
02:00 +12°C° 0 mm 1 m/S 745 mmHg 93%
03:00 +11°C° 0 mm 1 m/S 745 mmHg 92%
04:00 +10°C° 0 mm 2 m/S 745 mmHg 92%
05:00 +11°C° 0 mm 1 m/S 745 mmHg 92%
06:00 +11°C° 0 mm 1 m/S 745 mmHg 92%
07:00 +10°C° 0 mm 1 m/S 746 mmHg 92%
08:00 +11°C° 0 mm 1 m/S 746 mmHg 89%
09:00 +12°C° 0 mm 1 m/S 746 mmHg 85%
10:00 +12°C° 0 mm 1 m/S 746 mmHg 81%
11:00 +12°C° 0 mm 1 m/S 746 mmHg 81%
12:00 +13°C° 0 mm 1 m/S 746 mmHg 80%
13:00 +13°C° 0 mm 1 m/S 746 mmHg 80%
14:00 +12°C° 0.6 mm 1 m/S 746 mmHg 83%
15:00 +12°C° 0.6 mm 2 m/S 746 mmHg 87%
16:00 +10°C° 0.6 mm 2 m/S 746 mmHg 90%
17:00 +10°C° 0.7 mm 2 m/S 746 mmHg 90%
18:00 +10°C° 0.7 mm 2 m/S 746 mmHg 89%
19:00 +9°C° 0.7 mm 2 m/S 746 mmHg 88%
20:00 +9°C° 0.1 mm 2 m/S 746 mmHg 88%
21:00 +9°C° 0.1 mm 2 m/S 747 mmHg 88%
22:00 +9°C° 0.1 mm 3 m/S 747 mmHg 87%
23:00 +9°C° 0 mm 3 m/S 747 mmHg 88%

28 Oktober, Mittwoch

Zeit Temperatur Niederschläge Wind Luftdruck Luftfeuchtigkeit
00:00 +8°C° 0 mm 3 m/S 747 mmHg 89%
01:00 +8°C° 0 mm 3 m/S 747 mmHg 90%
02:00 +8°C° 0 mm 3 m/S 747 mmHg 91%
03:00 +8°C° 0 mm 3 m/S 747 mmHg 91%
04:00 +7°C° 0 mm 3 m/S 747 mmHg 91%
05:00 +6°C° 0 mm 4 m/S 747 mmHg 90%
06:00 +6°C° 0 mm 4 m/S 748 mmHg 90%
07:00 +6°C° 0 mm 4 m/S 748 mmHg 89%
08:00 +7°C° 0 mm 5 m/S 748 mmHg 83%
09:00 +8°C° 0 mm 5 m/S 748 mmHg 78%
10:00 +9°C° 0 mm 6 m/S 748 mmHg 72%
11:00 +10°C° 0 mm 6 m/S 748 mmHg 68%
12:00 +11°C° 0 mm 6 m/S 747 mmHg 64%
13:00 +11°C° 0 mm 6 m/S 747 mmHg 60%
14:00 +11°C° 0 mm 6 m/S 747 mmHg 64%
15:00 +10°C° 0 mm 5 m/S 747 mmHg 68%
16:00 +11°C° 0 mm 4 m/S 747 mmHg 72%
17:00 +10°C° 0 mm 4 m/S 747 mmHg 73%
18:00 +10°C° 0 mm 4 m/S 747 mmHg 74%
19:00 +10°C° 0 mm 4 m/S 747 mmHg 76%
20:00 +10°C° 0 mm 4 m/S 747 mmHg 76%
21:00 +8°C° 0 mm 4 m/S 747 mmHg 77%
22:00 +8°C° 0 mm 4 m/S 747 mmHg 78%
23:00 +8°C° 0 mm 4 m/S 747 mmHg 80%

29 Oktober, Donnerstag

Zeit Temperatur Niederschläge Wind Luftdruck Luftfeuchtigkeit
00:00 +7°C° 0 mm 4 m/S 747 mmHg 82%
01:00 +7°C° 0 mm 4 m/S 747 mmHg 84%
02:00 +7°C° 0 mm 4 m/S 747 mmHg 84%
03:00 +7°C° 0 mm 4 m/S 747 mmHg 84%
04:00 +7°C° 0 mm 4 m/S 747 mmHg 84%
05:00 +7°C° 0 mm 4 m/S 747 mmHg 84%
06:00 +7°C° 0 mm 4 m/S 747 mmHg 85%
07:00 +7°C° 0 mm 4 m/S 747 mmHg 86%
08:00 +7°C° 0.2 mm 4 m/S 747 mmHg 86%
09:00 +8°C° 0.2 mm 5 m/S 747 mmHg 86%
10:00 +8°C° 0.2 mm 5 m/S 747 mmHg 86%
11:00 +9°C° 0.3 mm 5 m/S 747 mmHg 81%
12:00 +9°C° 0.3 mm 5 m/S 747 mmHg 77%
13:00 +10°C° 0.3 mm 5 m/S 747 mmHg 72%
14:00 +10°C° 0 mm 5 m/S 748 mmHg 73%
15:00 +10°C° 0 mm 4 m/S 748 mmHg 74%
16:00 +10°C° 0 mm 4 m/S 748 mmHg 75%
17:00 +10°C° 0 mm 4 m/S 749 mmHg 77%
18:00 +8°C° 0 mm 4 m/S 749 mmHg 79%
19:00 +7°C° 0 mm 4 m/S 750 mmHg 81%
20:00 +7°C° 0 mm 4 m/S 750 mmHg 81%
21:00 +8°C° 0 mm 4 m/S 750 mmHg 82%
22:00 +8°C° 0 mm 4 m/S 750 mmHg 82%
23:00 +8°C° 0 mm 4 m/S 750 mmHg 82%

30 Oktober, Freitag

Zeit Temperatur Niederschläge Wind Luftdruck Luftfeuchtigkeit
00:00 +7°C° 0 mm 5 m/S 750 mmHg 82%
01:00 +7°C° 0 mm 5 m/S 750 mmHg 82%
02:00 +8°C° 0 mm 6 m/S 749 mmHg 81%
03:00 +8°C° 0 mm 6 m/S 749 mmHg 81%
04:00 +8°C° 0 mm 6 m/S 749 mmHg 81%
05:00 +9°C° 0.2 mm 6 m/S 748 mmHg 83%
06:00 +9°C° 0.2 mm 7 m/S 748 mmHg 85%
07:00 +9°C° 0.2 mm 7 m/S 748 mmHg 87%
08:00 +10°C° 0 mm 7 m/S 749 mmHg 86%
09:00 +11°C° 0 mm 7 m/S 749 mmHg 86%
10:00 +11°C° 0 mm 6 m/S 749 mmHg 86%
11:00 +11°C° 0.1 mm 6 m/S 749 mmHg 85%
12:00 +13°C° 0.1 mm 6 m/S 750 mmHg 84%
13:00 +13°C° 0.1 mm 6 m/S 750 mmHg 83%
14:00 +13°C° 0.1 mm 6 m/S 750 mmHg 83%
15:00 +13°C° 0.1 mm 6 m/S 750 mmHg 83%
16:00 +13°C° 0.1 mm 5 m/S 750 mmHg 83%
17:00 +13°C° 0 mm 5 m/S 750 mmHg 82%
18:00 +13°C° 0 mm 5 m/S 751 mmHg 81%
19:00 +13°C° 0 mm 5 m/S 751 mmHg 80%
20:00 +13°C° 0 mm 5 m/S 751 mmHg 80%
21:00 +13°C° 0 mm 5 m/S 751 mmHg 80%
22:00 +12°C° 0 mm 5 m/S 751 mmHg 80%
23:00 +12°C° 0 mm 4 m/S 751 mmHg 81%
Mehr zeigen